[[{"header":{"parameterUnit":"m.s-1","parameterCategory":1,"la1":30.2991,"la2":30.254,"lo1":-89.0895,"lo2":-89.0444,"dy":0.0017,"dx":0.0017,"nx":28,"ny":28,"refTime":"2023-11-08T03:00:00:Z","depth":0,"parameterNumber":2,"parameterNumberName":"U-component_of_WINDS"},"data":[0,0,0,0,0,0,0,0,0,0,0,0,0,0,0,0,0,0,0,0,0,0,0,0,0,0,0,0,0,0,0,0,0,0,0,0,0,0,0,0,0,0,0,0,0,0,0,0,0,0,0,0,0,0,0,0,0,0,-0.6054,-0.6053,0,-0.6035,-0.6035,-0.6035,-0.6043,-0.6043,-0.6044,-0.6044,-0.6022,-0.6021,-0.602,0,0,0,0,0,0,0,0,0,0,0,0,0,-0.6092,-0.6092,-0.6054,-0.6053,-0.6053,-0.6035,-0.6035,-0.6035,-0.6043,-0.6043,-0.6044,-0.6044,-0.6022,-0.6021,-0.602,0,0,0,0,0,0,0,0,0,0,0,0,0,-0.6075,-0.6091,-0.6054,-0.6055,-0.6055,-0.6035,-0.6035,-0.6034,-0.6043,-0.6043,-0.6044,-0.6045,-0.6023,-0.6021,-0.602,-0.5996,0,0,-0.6015,-0.6014,0,0,0,0,0,0,0,0,-0.6076,-0.6073,-0.6055,-0.6055,-0.6055,-0.6042,-0.604,-0.6022,-0.6042,-0.6047,-0.6044,-0.6045,-0.6028,-0.6026,-0.6021,-0.5995,-0.5994,-0.6015,-0.6014,-0.6013,-0.6013,0,0,0,0,0,0,0,-0.6077,-0.6074,-0.6046,-0.6055,-0.6055,-0.6055,-0.6054,-0.6037,-0.6034,-0.6047,-0.6047,-0.6045,-0.6028,-0.6022,-0.602,-0.5994,-0.6015,-0.6014,-0.6013,-0.6012,-0.5945,-0.5945,0,0,0,0,0,0,-0.6079,-0.6075,-0.6047,-0.6046,-0.6067,-0.6054,-0.6052,-0.6045,-0.6034,-0.6033,-0.6045,-0.6046,-0.6025,-0.6022,-0.602,-0.599,-0.6013,-0.6012,-0.6011,-0.5946,-0.5945,-0.5944,0,0,0,0,0,0,-0.608,-0.6076,-0.6048,-0.6061,-0.6057,-0.6053,-0.6045,-0.6045,-0.6039,-0.6032,-0.6032,-0.604,-0.6025,-0.6022,-0.6002,-0.5989,-0.6011,-0.601,-0.5947,-0.5946,-0.5945,-0.5931,0,0,0,0,0,0,-0.6081,-0.6076,-0.6068,-0.606,-0.6056,-0.6031,-0.6044,-0.6044,-0.6037,-0.6038,-0.6028,-0.6026,-0.6025,-0.6004,-0.6,-0.5987,-0.6009,-0.5948,-0.5947,-0.5945,-0.5932,-0.5929,-0.5926,0,0,0,0,0,-0.6082,-0.6065,-0.6068,-0.6064,-0.6046,-0.603,-0.6028,-0.6028,-0.6036,-0.6027,-0.6022,-0.6027,-0.5991,-0.6002,-0.5998,-0.5984,-0.5949,-0.5947,-0.5945,-0.5933,-0.593,-0.5926,0,0,0,0,0,0,-0.6071,-0.6064,-0.6067,-0.6047,-0.6039,-0.6032,-0.6021,-0.6024,-0.6013,-0.6015,-0.6014,-0.6012,-0.599,-0.5985,-0.5997,-0.596,-0.5971,-0.5968,-0.5964,-0.596,-0.5957,-0.5958,-0.6007,0,0,0,0,0,-0.6066,-0.6055,-0.6049,-0.6032,-0.6028,-0.6025,-0.6018,-0.6019,-0.601,-0.6006,-0.6001,-0.5991,-0.5977,-0.5969,-0.5956,-0.5932,-0.5928,-0.592,-0.5917,-0.5915,-0.5912,-0.5897,-0.5892,-0.5938,-0.5938,-0.5938,0,0,-0.6056,-0.6051,-0.6044,-0.603,-0.6024,-0.601,-0.6022,-0.6008,-0.5998,-0.6004,-0.5984,-0.598,-0.5969,-0.5946,-0.5936,-0.5941,-0.5899,-0.5913,-0.5911,-0.5909,-0.5894,-0.589,-0.5886,-0.5937,-0.5937,-0.5937,0,0,-0.6031,-0.6027,-0.6011,-0.6005,-0.5996,-0.5994,-0.599,-0.5982,-0.5979,-0.596,-0.5963,-0.595,-0.5928,-0.5919,-0.5912,-0.5882,-0.5885,-0.5878,-0.5862,-0.5847,-0.5844,-0.584,-0.5828,-0.5823,-0.5876,-0.5876,-0.5876,0,-0.6019,-0.6001,-0.6002,-0.5988,-0.598,-0.5986,-0.5969,-0.5963,-0.595,-0.5944,-0.5951,-0.5921,-0.5915,-0.5889,-0.5881,-0.5876,-0.587,-0.5879,-0.5844,-0.5841,-0.5838,-0.5826,-0.5821,-0.5875,-0.5875,-0.5875,-0.5875,0,-0.5986,-0.5973,-0.5961,-0.5949,-0.594,-0.5925,-0.5922,-0.5913,-0.5915,-0.5911,-0.589,-0.5882,-0.5867,-0.5861,-0.5862,-0.5835,-0.5839,-0.5845,-0.5856,-0.5833,-0.5821,-0.5817,-0.5873,-0.5874,-0.5874,-0.5874,0,0,-0.5953,-0.5941,-0.5937,-0.593,-0.592,-0.591,-0.5893,-0.588,-0.5871,-0.5861,-0.5846,-0.5826,-0.5832,-0.5823,-0.5823,-0.581,-0.5784,-0.5818,-0.5817,-0.581,-0.5751,-0.5745,-0.574,-0.5787,-0.5786,-0.5785,-0.5751,0,-0.5925,-0.5898,-0.5899,-0.5873,-0.5859,-0.5864,-0.585,-0.5841,-0.5837,-0.5824,-0.582,-0.5805,-0.5814,-0.5809,-0.5796,-0.579,-0.5772,-0.5793,-0.5771,-0.577,-0.5772,-0.5735,-0.5729,-0.5697,-0.5747,-0.5747,-0.5746,0,-0.589,-0.588,-0.5852,-0.5843,-0.5837,-0.5824,-0.5811,-0.5799,-0.5788,-0.5786,-0.5777,-0.5778,-0.5759,-0.5772,-0.5745,-0.5759,-0.575,-0.5746,-0.5745,-0.5741,-0.5755,-0.5728,-0.5687,-0.5682,-0.5739,-0.574,-0.574,0,-0.5866,-0.5846,-0.5826,-0.5821,-0.581,-0.58,-0.5795,-0.5785,-0.5776,-0.5764,-0.5758,-0.5743,-0.5735,-0.5722,-0.5719,-0.5729,-0.5691,-0.5704,-0.5687,-0.5687,-0.5678,-0.5678,-0.5633,-0.5675,-0.5675,-0.5675,-0.5675,0,-0.5835,-0.5817,-0.5815,-0.5803,-0.5783,-0.5783,-0.5763,-0.5758,-0.5749,-0.5735,-0.5738,-0.5724,-0.5722,-0.5706,-0.5704,-0.568,-0.5677,-0.5673,-0.5672,-0.5672,-0.5672,-0.5665,-0.5666,-0.5674,-0.5674,-0.5674,-0.5675,0,-0.5805,-0.5803,-0.5781,-0.5773,-0.577,-0.5755,-0.5747,-0.5734,-0.5731,-0.5712,-0.5708,-0.5702,-0.5684,-0.568,-0.5659,-0.5657,-0.5629,-0.5631,-0.5632,-0.5632,-0.5614,-0.5615,-0.5561,-0.5553,-0.5602,-0.5602,-0.5601,0,-0.5784,-0.5771,-0.576,-0.5751,-0.5746,-0.5731,-0.5722,-0.5721,-0.5711,-0.5698,-0.5686,-0.5669,-0.5655,-0.5626,-0.5619,-0.5602,-0.5602,-0.5585,-0.56,-0.5599,-0.5599,-0.56,-0.5597,-0.5581,-0.5581,-0.558,-0.558,0,-0.5747,-0.5746,-0.5734,-0.572,-0.5709,-0.5698,-0.5688,-0.568,-0.5677,-0.5665,-0.5648,-0.5637,-0.5615,-0.5597,-0.558,-0.5573,-0.5575,-0.5575,-0.557,-0.5569,-0.5569,-0.5567,-0.5622,-0.5576,-0.5577,-0.5577,-0.5577,-0.5577,-0.5719,-0.5707,-0.5697,-0.5683,-0.5675,-0.5665,-0.5652,-0.5647,-0.5632,-0.5615,-0.5615,-0.5595,-0.5583,-0.556,-0.5552,-0.5535,-0.554,-0.5533,-0.5531,-0.5529,-0.5526,-0.5573,-0.5532,-0.5532,-0.5532,-0.5532,-0.5532,0,-0.5681,-0.5675,-0.5661,-0.5646,-0.5634,-0.5639,-0.5627,-0.5616,-0.5599,-0.5588,-0.5574,-0.5552,-0.5535,-0.5526,-0.5508,-0.5495,-0.5496,-0.549,-0.549,-0.5488,-0.5524,-0.5529,-0.549,-0.549,-0.549,-0.549,-0.549,-0.549,-0.5659,-0.5638,-0.5636,-0.561,-0.5604,-0.5585,-0.5577,-0.5567,-0.5558,-0.5534,-0.552,-0.5515,-0.5504,-0.5485,-0.5468,-0.5465,-0.5457,-0.5451,-0.5449,-0.5482,-0.5486,-0.549,-0.5495,-0.545,-0.545,-0.5415,-0.5414,-0.5414]},{"header":{"parameterUnit":"m.s-1","parameterCategory":1,"la1":30.2991,"la2":30.254,"lo1":-89.0895,"lo2":-89.0444,"dy":0.0017,"dx":0.0017,"nx":28,"ny":28,"refTime":"2023-11-08T03:00:00:Z","depth":0,"parameterNumber":3,"parameterNumberName":"V-component_of_WINDS"},"data":[0,0,0,0,0,0,0,0,0,0,0,0,0,0,0,0,0,0,0,0,0,0,0,0,0,0,0,0,0,0,0,0,0,0,0,0,0,0,0,0,0,0,0,0,0,0,0,0,0,0,0,0,0,0,0,0,0,0,1.4962,1.4961,0,1.489,1.4889,1.4888,1.4812,1.4811,1.481,1.4809,1.4734,1.4733,1.4732,0,0,0,0,0,0,0,0,0,0,0,0,0,1.5033,1.5033,1.4962,1.4961,1.496,1.489,1.4889,1.4888,1.4812,1.4811,1.481,1.4808,1.4735,1.4734,1.4732,0,0,0,0,0,0,0,0,0,0,0,0,0,1.4986,1.5032,1.4962,1.4914,1.4909,1.489,1.4889,1.4888,1.4813,1.4811,1.4809,1.4808,1.4735,1.4734,1.4732,1.4755,0,0,1.4728,1.4727,0,0,0,0,0,0,0,0,1.4989,1.4984,1.4922,1.4917,1.4911,1.4858,1.4887,1.4843,1.4813,1.4849,1.4809,1.4807,1.4777,1.4772,1.4762,1.4752,1.4748,1.4728,1.4727,1.4726,1.4726,0,0,0,0,0,0,0,1.4992,1.4986,1.4933,1.4921,1.4915,1.4896,1.4887,1.4878,1.4823,1.4846,1.484,1.4833,1.4774,1.4763,1.476,1.4747,1.4728,1.4726,1.4725,1.4725,1.4755,1.4757,0,0,0,0,0,0,1.5003,1.499,1.4936,1.4931,1.4947,1.4896,1.4886,1.4877,1.4823,1.4813,1.4834,1.4829,1.4767,1.4761,1.4757,1.4781,1.4726,1.4725,1.4724,1.4753,1.4755,1.4757,0,0,0,0,0,0,1.5005,1.4999,1.4939,1.4959,1.495,1.4896,1.4887,1.4876,1.4866,1.4814,1.4804,1.4834,1.4765,1.4759,1.4757,1.4778,1.4724,1.4723,1.4751,1.4754,1.4756,1.4831,0,0,0,0,0,0,1.5007,1.5,1.5008,1.496,1.4949,1.494,1.4888,1.4876,1.4864,1.4857,1.4811,1.4802,1.4764,1.4759,1.4755,1.4775,1.4721,1.4749,1.4752,1.4755,1.4826,1.4835,1.4843,0,0,0,0,0,1.501,1.5031,1.5009,1.5003,1.4958,1.4941,1.4935,1.4891,1.4866,1.4874,1.4841,1.4803,1.4776,1.476,1.4754,1.4774,1.4748,1.4751,1.4755,1.4822,1.4834,1.4843,0,0,0,0,0,0,1.5082,1.5024,1.4998,1.5004,1.4979,1.4928,1.4937,1.4904,1.4884,1.4879,1.4825,1.4815,1.482,1.4796,1.4779,1.4795,1.4757,1.476,1.481,1.482,1.4828,1.4834,1.472,0,0,0,0,0,1.5099,1.5091,1.504,1.505,1.5038,1.499,1.4981,1.495,1.4921,1.4909,1.4875,1.4849,1.4834,1.4826,1.4809,1.4823,1.4812,1.4833,1.4842,1.485,1.4853,1.486,1.4869,1.477,1.477,1.4769,0,0,1.5133,1.51,1.5098,1.5064,1.504,1.5033,1.4981,1.4975,1.497,1.4908,1.4904,1.4879,1.4846,1.4852,1.4853,1.4833,1.4878,1.4854,1.4861,1.486,1.4865,1.4874,1.4883,1.4772,1.4772,1.4771,0,0,1.5192,1.5166,1.5172,1.515,1.5116,1.5084,1.5086,1.5041,1.5022,1.5018,1.4972,1.4965,1.494,1.4919,1.4905,1.4959,1.4924,1.4955,1.5,1.5008,1.5016,1.5023,1.5043,1.5051,1.4958,1.4959,1.4959,0,1.5239,1.5226,1.518,1.5177,1.5164,1.5109,1.5116,1.5097,1.5058,1.5051,1.5029,1.4999,1.4972,1.4974,1.4987,1.4977,1.4979,1.496,1.5019,1.5025,1.503,1.505,1.5057,1.4963,1.4962,1.4962,1.4961,0,1.5286,1.5279,1.5288,1.5254,1.5242,1.5244,1.5198,1.5192,1.5162,1.5133,1.5131,1.5097,1.5074,1.5072,1.5042,1.507,1.5059,1.5029,1.499,1.5045,1.5062,1.5069,1.4968,1.4967,1.4966,1.4965,0,0,1.5387,1.5329,1.5333,1.5318,1.5277,1.527,1.527,1.5249,1.5245,1.5221,1.522,1.5202,1.5175,1.5159,1.5127,1.5134,1.5181,1.5102,1.5101,1.5119,1.5211,1.5235,1.5244,1.5158,1.5159,1.516,1.5214,0,1.5439,1.5437,1.5397,1.5406,1.5399,1.5348,1.5348,1.5324,1.5297,1.5288,1.5258,1.5247,1.521,1.5201,1.5205,1.5174,1.5198,1.5169,1.5158,1.5158,1.5168,1.5252,1.5277,1.533,1.5221,1.5222,1.5222,0,1.55,1.5481,1.549,1.5451,1.5446,1.5447,1.5425,1.5417,1.5388,1.5368,1.5353,1.5316,1.5315,1.5279,1.5277,1.5258,1.5251,1.5235,1.5236,1.5233,1.5194,1.5253,1.5346,1.5354,1.5232,1.5231,1.5231,0,1.5574,1.5551,1.5554,1.5542,1.5496,1.5498,1.5479,1.5449,1.5439,1.542,1.5413,1.5394,1.5384,1.537,1.5331,1.5307,1.5334,1.5294,1.5318,1.532,1.5326,1.5326,1.542,1.5321,1.5321,1.532,1.532,0,1.5637,1.5645,1.5587,1.5589,1.5597,1.555,1.5559,1.5535,1.5509,1.5506,1.5461,1.5459,1.5406,1.5399,1.5367,1.5372,1.5367,1.5352,1.5343,1.5356,1.5358,1.5351,1.5346,1.5322,1.5322,1.5322,1.5321,0,1.5721,1.5682,1.5683,1.564,1.5629,1.5637,1.56,1.5601,1.5572,1.5569,1.5565,1.552,1.5509,1.5469,1.5447,1.5426,1.5441,1.5424,1.5451,1.5446,1.5473,1.5472,1.5565,1.5576,1.547,1.5471,1.5472,0,1.5764,1.5769,1.5727,1.5723,1.5706,1.5698,1.5688,1.5643,1.5635,1.5605,1.5609,1.5595,1.5581,1.5566,1.5532,1.5516,1.5499,1.5533,1.5496,1.551,1.5501,1.5502,1.5503,1.5541,1.5543,1.5544,1.5545,0,1.5845,1.5826,1.5814,1.5797,1.5787,1.577,1.5751,1.575,1.57,1.5694,1.5682,1.5672,1.5651,1.5638,1.5617,1.5597,1.5564,1.5557,1.5562,1.5575,1.5591,1.5584,1.5474,1.5555,1.5554,1.5553,1.5552,1.5552,1.591,1.5913,1.5885,1.5874,1.5855,1.5839,1.5838,1.581,1.58,1.578,1.5755,1.5747,1.572,1.5689,1.5672,1.5666,1.5647,1.5654,1.5656,1.5659,1.5666,1.5592,1.5662,1.5662,1.5661,1.5661,1.5661,0,1.599,1.597,1.596,1.5936,1.5928,1.5897,1.5875,1.587,1.5864,1.5842,1.583,1.5819,1.5806,1.5772,1.5756,1.5759,1.5743,1.5756,1.5756,1.5752,1.5683,1.5681,1.5769,1.5769,1.5769,1.5769,1.5769,1.5769,1.603,1.6034,1.6013,1.6008,1.5987,1.598,1.5971,1.5956,1.5939,1.5928,1.5918,1.5896,1.5869,1.5852,1.584,1.583,1.5827,1.5846,1.5831,1.5767,1.5757,1.5747,1.5745,1.5845,1.5845,1.5901,1.5902,1.5902]}]]